{"data":{"norad_id":62167,"epoch":"2026-09-19T02:44:26.783232Z","epoch_age_seconds":301248,"freshness":"STALE","line1":"1 62167U 24225E   26262.11419888  .00004412  00000+0  37729-3 0  9996","line2":"2 62167  70.0020  36.9447 0003205 266.7748  93.3044 14.98335512 98849","mean_motion":14.98335512,"eccentricity":0.0003205,"inclination_deg":70.002,"raan_deg":36.9447,"arg_perigee_deg":266.7748,"mean_anomaly_deg":93.3044,"bstar":0.00037729,"rev_number":9884,"period_min":96.106645572183,"perigee_km":569.81131423285,"apogee_km":574.26637694987,"semimajor_km":6950.1758455914,"source":"CELESTRAK","updated_at":"2026-09-22T09:00:49.534724Z"}}